Year,Month,Day,Hour,Minute,Value (Times are PST for temperature in C)
2010,07,07,00,00,13.60
2010,07,07,00,01,13.60
2010,07,07,00,02,13.60
2010,07,07,00,03,13.60
2010,07,07,00,04,13.60
2010,07,07,00,05,13.60
2010,07,07,00,06,13.60
2010,07,07,00,07,13.60
2010,07,07,00,08,13.60
2010,07,07,00,09,13.60
2010,07,07,00,10,13.60
2010,07,07,00,11,13.60
2010,07,07,00,12,13.60
2010,07,07,00,13,13.60
2010,07,07,00,14,13.60
2010,07,07,00,15,13.60
2010,07,07,00,16,13.60
2010,07,07,00,17,13.60
2010,07,07,00,18,13.60
2010,07,07,00,19,13.60
2010,07,07,00,20,13.60
2010,07,07,00,21,13.60
2010,07,07,00,22,13.60
2010,07,07,00,23,13.70
2010,07,07,00,24,13.70
2010,07,07,00,25,13.70
2010,07,07,00,26,13.70
2010,07,07,00,27,13.80
2010,07,07,00,28,13.80
2010,07,07,00,29,13.90
2010,07,07,00,30,13.90
2010,07,07,00,31,13.90
2010,07,07,00,32,14.00
2010,07,07,00,33,14.00
2010,07,07,00,34,14.00
2010,07,07,00,35,14.10
2010,07,07,00,36,14.10
2010,07,07,00,37,14.10
2010,07,07,00,38,14.10
2010,07,07,00,39,14.20
2010,07,07,00,40,14.20
2010,07,07,00,41,14.20
2010,07,07,00,42,14.20
2010,07,07,00,43,14.20
2010,07,07,00,44,14.20
2010,07,07,00,45,14.20
2010,07,07,00,46,14.20
2010,07,07,00,47,14.20
2010,07,07,00,48,14.20
2010,07,07,00,49,14.20
2010,07,07,00,50,14.20
2010,07,07,00,51,14.20
2010,07,07,00,52,14.20
2010,07,07,00,53,14.20
2010,07,07,00,54,14.20
2010,07,07,00,55,14.20
2010,07,07,00,56,14.20
2010,07,07,00,57,14.20
2010,07,07,00,58,14.20
2010,07,07,00,59,14.20
2010,07,07,01,00,14.20
2010,07,07,01,01,14.20
2010,07,07,01,02,14.20
2010,07,07,01,03,14.20
2010,07,07,01,04,14.10
2010,07,07,01,05,14.10
2010,07,07,01,06,14.10
2010,07,07,01,07,14.10
2010,07,07,01,08,14.10
2010,07,07,01,09,14.10
2010,07,07,01,10,14.00
2010,07,07,01,11,14.00
2010,07,07,01,12,14.00
2010,07,07,01,13,14.00
2010,07,07,01,14,14.00
2010,07,07,01,15,14.00
2010,07,07,01,16,14.00
2010,07,07,01,17,14.00
2010,07,07,01,18,13.90
2010,07,07,01,19,13.90
2010,07,07,01,20,13.90
2010,07,07,01,21,13.90
2010,07,07,01,22,13.90
2010,07,07,01,23,13.90
2010,07,07,01,24,13.90
2010,07,07,01,25,13.90
2010,07,07,01,26,13.90
2010,07,07,01,27,13.90
2010,07,07,01,28,13.80
2010,07,07,01,29,13.80
2010,07,07,01,30,13.80
2010,07,07,01,31,13.80
2010,07,07,01,32,13.80
2010,07,07,01,33,13.80
2010,07,07,01,34,13.80
2010,07,07,01,35,13.80
2010,07,07,01,36,13.80
2010,07,07,01,37,13.80
2010,07,07,01,38,13.80
2010,07,07,01,39,13.80
2010,07,07,01,40,13.80
2010,07,07,01,41,13.80
2010,07,07,01,42,13.80
2010,07,07,01,43,13.80
2010,07,07,01,44,13.80
2010,07,07,01,45,13.80
2010,07,07,01,46,13.80
2010,07,07,01,47,13.80
2010,07,07,01,48,13.80
2010,07,07,01,49,13.80
2010,07,07,01,50,13.70
2010,07,07,01,51,13.70
2010,07,07,01,52,13.70
2010,07,07,01,53,13.70
2010,07,07,01,54,13.70
2010,07,07,01,55,13.70
2010,07,07,01,56,13.70
2010,07,07,01,57,13.70
2010,07,07,01,58,13.70
2010,07,07,01,59,13.70
2010,07,07,02,00,13.70
2010,07,07,02,01,13.70
2010,07,07,02,02,13.70
2010,07,07,02,03,13.70
2010,07,07,02,04,13.70
2010,07,07,02,05,13.70
2010,07,07,02,06,13.70
2010,07,07,02,07,13.70
2010,07,07,02,08,13.70
2010,07,07,02,09,13.70
2010,07,07,02,10,13.70
2010,07,07,02,11,13.70
2010,07,07,02,12,13.70
2010,07,07,02,13,13.70
2010,07,07,02,14,13.70
2010,07,07,02,15,13.70
2010,07,07,02,16,13.70
2010,07,07,02,17,13.70
2010,07,07,02,18,13.70
2010,07,07,02,19,13.70
2010,07,07,02,20,13.70
2010,07,07,02,21,13.70
2010,07,07,02,22,13.70
2010,07,07,02,23,13.70
2010,07,07,02,24,13.70
2010,07,07,02,25,13.70
2010,07,07,02,26,13.70
2010,07,07,02,27,13.70
2010,07,07,02,28,13.70
2010,07,07,02,29,13.70
2010,07,07,02,30,13.70
2010,07,07,02,31,13.70
2010,07,07,02,32,13.70
2010,07,07,02,33,13.70
2010,07,07,02,34,13.70
2010,07,07,02,35,13.70
2010,07,07,02,36,13.70
2010,07,07,02,37,13.70
2010,07,07,02,38,13.70
2010,07,07,02,39,13.70
2010,07,07,02,40,13.70
2010,07,07,02,41,13.70
2010,07,07,02,42,13.70
2010,07,07,02,43,13.70
2010,07,07,02,44,13.70
2010,07,07,02,45,13.70
2010,07,07,02,46,13.70
2010,07,07,02,47,13.70
2010,07,07,02,48,13.70
2010,07,07,02,49,13.70
2010,07,07,02,50,13.70
2010,07,07,02,51,13.70
2010,07,07,02,52,13.70
2010,07,07,02,53,13.70
2010,07,07,02,54,13.70
2010,07,07,02,55,13.70
2010,07,07,02,56,13.70
2010,07,07,02,57,13.70
2010,07,07,02,58,13.70
2010,07,07,02,59,13.70
2010,07,07,03,00,13.70
2010,07,07,03,01,13.70
2010,07,07,03,02,13.70
2010,07,07,03,03,13.60
2010,07,07,03,04,13.60
2010,07,07,03,05,13.60
2010,07,07,03,06,13.60
2010,07,07,03,07,13.50
2010,07,07,03,08,13.50
2010,07,07,03,09,13.50
2010,07,07,03,10,13.50
2010,07,07,03,11,13.50
2010,07,07,03,12,13.40
2010,07,07,03,13,13.30
2010,07,07,03,14,13.30
2010,07,07,03,15,13.30
2010,07,07,03,16,13.20
2010,07,07,03,17,13.10
2010,07,07,03,18,13.00
2010,07,07,03,19,12.90
2010,07,07,03,20,12.80
2010,07,07,03,21,12.80
2010,07,07,03,22,12.80
2010,07,07,03,23,12.70
2010,07,07,03,24,12.70
2010,07,07,03,25,12.70
2010,07,07,03,26,12.70
2010,07,07,03,27,12.60
2010,07,07,03,28,12.60
2010,07,07,03,29,12.60
2010,07,07,03,30,12.60
2010,07,07,03,31,12.60
2010,07,07,03,32,12.60
2010,07,07,03,33,12.60
2010,07,07,03,34,12.60
2010,07,07,03,35,12.60
2010,07,07,03,36,12.60
2010,07,07,03,37,12.60
2010,07,07,03,38,12.70
2010,07,07,03,39,12.70
2010,07,07,03,40,12.70
2010,07,07,03,41,12.70
2010,07,07,03,42,12.70
2010,07,07,03,43,12.80
2010,07,07,03,44,12.70
2010,07,07,03,45,12.70
2010,07,07,03,46,12.60
2010,07,07,03,47,12.50
2010,07,07,03,48,12.40
2010,07,07,03,49,12.30
2010,07,07,03,50,12.20
2010,07,07,03,51,12.20
2010,07,07,03,52,12.10
2010,07,07,03,53,12.10
2010,07,07,03,54,12.10
2010,07,07,03,55,12.00
2010,07,07,03,56,12.00
2010,07,07,03,57,12.00
2010,07,07,03,58,12.00
2010,07,07,03,59,12.00
2010,07,07,04,00,12.00
2010,07,07,04,01,12.00
2010,07,07,04,02,12.00
2010,07,07,04,03,12.00
2010,07,07,04,04,12.00
2010,07,07,04,05,12.00
2010,07,07,04,06,12.00
2010,07,07,04,07,12.00
2010,07,07,04,08,12.00
2010,07,07,04,09,12.00
2010,07,07,04,10,12.00
2010,07,07,04,11,12.00
2010,07,07,04,12,12.00
2010,07,07,04,13,12.00
2010,07,07,04,14,12.10
2010,07,07,04,15,12.10
2010,07,07,04,16,12.10
2010,07,07,04,17,12.10
2010,07,07,04,18,12.20
2010,07,07,04,19,12.20
2010,07,07,04,20,12.20
2010,07,07,04,21,12.20
2010,07,07,04,22,12.20
2010,07,07,04,23,12.30
2010,07,07,04,24,12.30
2010,07,07,04,25,12.30
2010,07,07,04,26,12.30
2010,07,07,04,27,12.30
2010,07,07,04,28,12.30
2010,07,07,04,29,12.30
2010,07,07,04,30,12.30
2010,07,07,04,31,12.30
2010,07,07,04,32,12.30
2010,07,07,04,33,12.30
2010,07,07,04,34,12.30
2010,07,07,04,35,12.30
2010,07,07,04,36,12.30
2010,07,07,04,37,12.30
2010,07,07,04,38,12.30
2010,07,07,04,39,12.30
2010,07,07,04,40,12.30
2010,07,07,04,41,12.30
2010,07,07,04,42,12.20
2010,07,07,04,43,12.20
2010,07,07,04,44,12.20
2010,07,07,04,45,12.20
2010,07,07,04,46,12.30
2010,07,07,04,47,12.30
2010,07,07,04,48,12.30
2010,07,07,04,49,12.30
2010,07,07,04,50,12.30
2010,07,07,04,51,12.30
2010,07,07,04,52,12.30
2010,07,07,04,53,12.30
2010,07,07,04,54,12.30
2010,07,07,04,55,12.30
2010,07,07,04,56,12.30
2010,07,07,04,57,12.40
2010,07,07,04,58,12.40
2010,07,07,04,59,12.50
2010,07,07,05,00,12.50
2010,07,07,05,01,12.50
2010,07,07,05,02,12.50
2010,07,07,05,03,12.50
2010,07,07,05,04,12.60
2010,07,07,05,05,12.60
2010,07,07,05,06,12.60
2010,07,07,05,07,12.60
2010,07,07,05,08,12.60
2010,07,07,05,09,12.60
2010,07,07,05,10,12.60
2010,07,07,05,11,12.70
2010,07,07,05,12,12.70
2010,07,07,05,13,12.70
2010,07,07,05,14,12.80
2010,07,07,05,15,12.80
2010,07,07,05,16,12.80
2010,07,07,05,17,12.80
2010,07,07,05,18,12.80
2010,07,07,05,19,12.80
2010,07,07,05,20,12.80
2010,07,07,05,21,12.80
2010,07,07,05,22,12.80
2010,07,07,05,23,12.80
2010,07,07,05,24,12.80
2010,07,07,05,25,12.80
2010,07,07,05,26,12.80
2010,07,07,05,27,12.80
2010,07,07,05,28,12.80
2010,07,07,05,29,12.80
2010,07,07,05,30,12.80
2010,07,07,05,31,12.80
2010,07,07,05,32,12.90
2010,07,07,05,33,12.90
2010,07,07,05,34,13.00
2010,07,07,05,35,13.00
2010,07,07,05,36,13.10
2010,07,07,05,37,13.10
2010,07,07,05,38,13.20
2010,07,07,05,39,13.30
2010,07,07,05,40,13.30
2010,07,07,05,41,13.40
2010,07,07,05,42,13.50
2010,07,07,05,43,13.60
2010,07,07,05,44,13.60
2010,07,07,05,45,13.70
2010,07,07,05,46,13.70
2010,07,07,05,47,13.70
2010,07,07,05,48,13.80
2010,07,07,05,49,13.90
2010,07,07,05,50,13.90
2010,07,07,05,51,14.00
2010,07,07,05,52,14.00
2010,07,07,05,53,14.10
2010,07,07,05,54,14.10
2010,07,07,05,55,14.10
2010,07,07,05,56,14.20
2010,07,07,05,57,14.20
2010,07,07,05,58,14.20
2010,07,07,05,59,14.20
2010,07,07,06,00,14.20
2010,07,07,06,01,14.20
2010,07,07,06,02,14.20
2010,07,07,06,03,14.20
2010,07,07,06,04,14.20
2010,07,07,06,05,14.20
2010,07,07,06,06,14.20
2010,07,07,06,07,14.20
2010,07,07,06,08,14.20
2010,07,07,06,09,14.20
2010,07,07,06,10,14.20
2010,07,07,06,11,14.20
2010,07,07,06,12,14.20
2010,07,07,06,13,14.20
2010,07,07,06,14,14.20
2010,07,07,06,15,14.30
2010,07,07,06,16,14.30
2010,07,07,06,17,14.30
2010,07,07,06,18,14.40
2010,07,07,06,19,14.40
2010,07,07,06,20,14.40
2010,07,07,06,21,14.50
2010,07,07,06,22,14.50
2010,07,07,06,23,14.50
2010,07,07,06,24,14.60
2010,07,07,06,25,14.60
2010,07,07,06,26,14.60
2010,07,07,06,27,14.60
2010,07,07,06,28,14.60
2010,07,07,06,29,14.70
2010,07,07,06,30,14.70
2010,07,07,06,31,14.70
2010,07,07,06,32,14.70
2010,07,07,06,33,14.80
2010,07,07,06,34,14.80
2010,07,07,06,35,14.80
2010,07,07,06,36,14.80
2010,07,07,06,37,14.80
2010,07,07,06,38,14.90
2010,07,07,06,39,14.90
2010,07,07,06,40,15.00
2010,07,07,06,41,15.00
2010,07,07,06,42,15.10
2010,07,07,06,43,15.10
2010,07,07,06,44,15.20
2010,07,07,06,45,15.20
2010,07,07,06,46,15.20
2010,07,07,06,47,15.30
2010,07,07,06,48,15.30
2010,07,07,06,49,15.30
2010,07,07,06,50,15.40
2010,07,07,06,51,15.40
2010,07,07,06,52,15.50
2010,07,07,06,53,15.60
2010,07,07,06,54,15.60
2010,07,07,06,55,15.70
2010,07,07,06,56,15.80
2010,07,07,06,57,15.80
2010,07,07,06,58,15.90
2010,07,07,06,59,15.90
2010,07,07,07,00,16.00
2010,07,07,07,01,16.10
2010,07,07,07,02,16.10
2010,07,07,07,03,16.20
2010,07,07,07,04,16.20
2010,07,07,07,05,16.30
2010,07,07,07,06,16.30
2010,07,07,07,07,16.40
2010,07,07,07,08,16.40
2010,07,07,07,09,16.60
2010,07,07,07,10,16.60
2010,07,07,07,11,16.70
2010,07,07,07,12,16.70
2010,07,07,07,13,16.80
2010,07,07,07,14,16.90
2010,07,07,07,15,16.90
2010,07,07,07,16,17.00
2010,07,07,07,17,17.10
2010,07,07,07,18,17.10
2010,07,07,07,19,17.20
2010,07,07,07,20,17.20
2010,07,07,07,21,17.30
2010,07,07,07,22,17.30
2010,07,07,07,23,17.30
2010,07,07,07,24,17.30
2010,07,07,07,25,17.40
2010,07,07,07,26,17.40
2010,07,07,07,27,17.40
2010,07,07,07,28,17.40
2010,07,07,07,29,17.40
2010,07,07,07,30,17.50
2010,07,07,07,31,17.50
2010,07,07,07,32,17.60
2010,07,07,07,33,17.70
2010,07,07,07,34,17.70
2010,07,07,07,35,17.70
2010,07,07,07,36,17.80
2010,07,07,07,37,17.80
2010,07,07,07,38,17.80
2010,07,07,07,39,17.80
2010,07,07,07,40,17.80
2010,07,07,07,41,17.90
2010,07,07,07,42,17.90
2010,07,07,07,43,17.90
2010,07,07,07,44,17.90
2010,07,07,07,45,17.90
2010,07,07,07,46,17.80
2010,07,07,07,47,17.80
2010,07,07,07,48,17.80
2010,07,07,07,49,17.70
2010,07,07,07,50,17.70
2010,07,07,07,51,17.70
2010,07,07,07,52,17.80
2010,07,07,07,53,17.80
2010,07,07,07,54,17.90
2010,07,07,07,55,17.90
2010,07,07,07,56,17.90
2010,07,07,07,57,17.90
2010,07,07,07,58,17.90
2010,07,07,07,59,17.90
2010,07,07,08,00,17.90
2010,07,07,08,01,18.00
2010,07,07,08,02,18.10
2010,07,07,08,03,18.10
2010,07,07,08,04,18.20
2010,07,07,08,05,18.20
2010,07,07,08,06,18.20
2010,07,07,08,07,18.30
2010,07,07,08,08,18.30
2010,07,07,08,09,18.30
2010,07,07,08,10,18.40
2010,07,07,08,11,18.40
2010,07,07,08,12,18.40
2010,07,07,08,13,18.50
2010,07,07,08,14,18.60
2010,07,07,08,15,18.60
2010,07,07,08,16,18.70
2010,07,07,08,17,18.80
2010,07,07,08,18,18.90
2010,07,07,08,19,18.90
2010,07,07,08,20,19.00
2010,07,07,08,21,19.10
2010,07,07,08,22,19.20
2010,07,07,08,23,19.30
2010,07,07,08,24,19.40
2010,07,07,08,25,19.50
2010,07,07,08,26,19.50
2010,07,07,08,27,19.60
2010,07,07,08,28,19.60
2010,07,07,08,29,19.60
2010,07,07,08,30,19.60
2010,07,07,08,31,19.50
2010,07,07,08,32,19.50
2010,07,07,08,33,19.50
2010,07,07,08,34,19.50
2010,07,07,08,35,19.60
2010,07,07,08,36,19.60
2010,07,07,08,37,19.60
2010,07,07,08,38,19.60
2010,07,07,08,39,19.60
2010,07,07,08,40,19.60
2010,07,07,08,41,19.60
2010,07,07,08,42,19.60
2010,07,07,08,43,19.60
2010,07,07,08,44,19.70
2010,07,07,08,45,19.70
2010,07,07,08,46,19.70
2010,07,07,08,47,19.60
2010,07,07,08,48,19.60
2010,07,07,08,49,19.60
2010,07,07,08,50,19.60
2010,07,07,08,51,19.60
2010,07,07,08,52,19.60
2010,07,07,08,53,19.60
2010,07,07,08,54,19.70
2010,07,07,08,55,19.70
2010,07,07,08,56,19.70
2010,07,07,08,57,19.60
2010,07,07,08,58,19.70
2010,07,07,08,59,19.70
2010,07,07,09,00,19.80
2010,07,07,09,01,19.90
2010,07,07,09,02,19.90
2010,07,07,09,03,19.90
2010,07,07,09,04,19.90
2010,07,07,09,05,19.90
2010,07,07,09,06,19.90
2010,07,07,09,07,20.10
2010,07,07,09,08,20.10
2010,07,07,09,09,20.10
2010,07,07,09,10,20.20
2010,07,07,09,11,20.20
2010,07,07,09,12,20.20
2010,07,07,09,13,20.20
2010,07,07,09,14,20.20
2010,07,07,09,15,20.20
2010,07,07,09,16,20.20
2010,07,07,09,17,20.20
2010,07,07,09,18,20.30
2010,07,07,09,19,20.30
2010,07,07,09,20,20.40
2010,07,07,09,21,20.40
2010,07,07,09,22,20.40
2010,07,07,09,23,20.40
2010,07,07,09,24,20.40
2010,07,07,09,25,20.40
2010,07,07,09,26,20.40
2010,07,07,09,27,20.40
2010,07,07,09,28,20.40
2010,07,07,09,29,20.40
2010,07,07,09,30,20.40
2010,07,07,09,31,20.40
2010,07,07,09,32,20.50
2010,07,07,09,33,20.50
2010,07,07,09,34,20.50
2010,07,07,09,35,20.50
2010,07,07,09,36,20.60
2010,07,07,09,37,20.60
2010,07,07,09,38,20.60
2010,07,07,09,39,20.60
2010,07,07,09,40,20.60
2010,07,07,09,41,20.70
2010,07,07,09,42,20.60
2010,07,07,09,43,20.60
2010,07,07,09,44,20.70
2010,07,07,09,45,20.70
2010,07,07,09,46,20.70
2010,07,07,09,47,20.60
2010,07,07,09,48,20.60
2010,07,07,09,49,20.70
2010,07,07,09,50,20.60
2010,07,07,09,51,20.60
2010,07,07,09,52,20.60
2010,07,07,09,53,20.70
2010,07,07,09,54,20.70
2010,07,07,09,55,20.70
2010,07,07,09,56,20.70
2010,07,07,09,57,20.80
2010,07,07,09,58,20.80
2010,07,07,09,59,20.90
2010,07,07,10,00,21.00
2010,07,07,10,01,21.00
2010,07,07,10,02,21.20
2010,07,07,10,03,21.30
2010,07,07,10,04,21.30
2010,07,07,10,05,21.40
2010,07,07,10,06,21.40
2010,07,07,10,07,21.50
2010,07,07,10,08,21.60
2010,07,07,10,09,21.60
2010,07,07,10,10,21.70
2010,07,07,10,11,21.70
2010,07,07,10,12,21.70
2010,07,07,10,13,21.70
2010,07,07,10,14,21.70
2010,07,07,10,15,21.60
2010,07,07,10,16,21.60
2010,07,07,10,17,21.60
2010,07,07,10,18,21.60
2010,07,07,10,19,21.50
2010,07,07,10,20,21.40
2010,07,07,10,21,21.40
2010,07,07,10,22,21.40
2010,07,07,10,23,21.50
2010,07,07,10,24,21.60
2010,07,07,10,25,21.40
2010,07,07,10,26,21.40
2010,07,07,10,27,21.60
2010,07,07,10,28,21.60
2010,07,07,10,29,21.60
2010,07,07,10,30,21.60
2010,07,07,10,31,21.60
2010,07,07,10,32,21.60
2010,07,07,10,33,21.60
2010,07,07,10,34,21.60
2010,07,07,10,35,21.60
2010,07,07,10,36,21.60
2010,07,07,10,37,21.60
2010,07,07,10,38,21.60
2010,07,07,10,39,21.70
2010,07,07,10,40,21.80
2010,07,07,10,41,21.80
2010,07,07,10,42,21.90
2010,07,07,10,43,21.90
2010,07,07,10,44,22.00
2010,07,07,10,45,22.00
2010,07,07,10,46,22.00
2010,07,07,10,47,22.10
2010,07,07,10,48,22.20
2010,07,07,10,49,22.20
2010,07,07,10,50,22.30
2010,07,07,10,51,22.30
2010,07,07,10,52,22.40
2010,07,07,10,53,22.40
2010,07,07,10,54,22.60
2010,07,07,10,55,22.60
2010,07,07,10,56,22.70
2010,07,07,10,57,22.70
2010,07,07,10,58,22.70
2010,07,07,10,59,22.60
2010,07,07,11,00,22.70
2010,07,07,11,01,22.70
2010,07,07,11,02,22.80
2010,07,07,11,03,22.80
2010,07,07,11,04,22.70
2010,07,07,11,05,22.70
2010,07,07,11,06,22.70
2010,07,07,11,07,22.70
2010,07,07,11,08,22.70
2010,07,07,11,09,22.70
2010,07,07,11,10,22.70
2010,07,07,11,11,22.80
2010,07,07,11,12,22.90
2010,07,07,11,13,22.90
2010,07,07,11,14,22.90
2010,07,07,11,15,22.90
2010,07,07,11,16,23.00
2010,07,07,11,17,23.10
2010,07,07,11,18,23.10
2010,07,07,11,19,23.20
2010,07,07,11,20,23.10
2010,07,07,11,21,23.00
2010,07,07,11,22,22.80
2010,07,07,11,23,22.70
2010,07,07,11,24,22.70
2010,07,07,11,25,22.60
2010,07,07,11,26,22.50
2010,07,07,11,27,22.40
2010,07,07,11,28,22.30
2010,07,07,11,29,22.20
2010,07,07,11,30,22.20
2010,07,07,11,31,22.20
2010,07,07,11,32,22.30
2010,07,07,11,33,22.30
2010,07,07,11,34,22.30
2010,07,07,11,35,22.30
2010,07,07,11,36,22.40
2010,07,07,11,37,22.40
2010,07,07,11,38,22.50
2010,07,07,11,39,22.60
2010,07,07,11,40,22.70
2010,07,07,11,41,22.80
2010,07,07,11,42,22.80
2010,07,07,11,43,22.80
2010,07,07,11,44,22.80
2010,07,07,11,45,22.80
2010,07,07,11,46,22.70
2010,07,07,11,47,22.70
2010,07,07,11,48,22.60
2010,07,07,11,49,22.70
2010,07,07,11,50,22.70
2010,07,07,11,51,22.60
2010,07,07,11,52,22.60
2010,07,07,11,53,22.50
2010,07,07,11,54,22.40
2010,07,07,11,55,22.40
2010,07,07,11,56,22.40
2010,07,07,11,57,22.30
2010,07,07,11,58,22.30
2010,07,07,11,59,22.20
2010,07,07,12,00,22.20
2010,07,07,12,01,22.20
2010,07,07,12,02,22.30
2010,07,07,12,03,22.30
2010,07,07,12,04,22.40
2010,07,07,12,05,22.40
2010,07,07,12,06,22.40
2010,07,07,12,07,22.50
2010,07,07,12,08,22.40
2010,07,07,12,09,22.40
2010,07,07,12,10,22.40
2010,07,07,12,11,22.40
2010,07,07,12,12,22.50
2010,07,07,12,13,22.50
2010,07,07,12,14,22.60
2010,07,07,12,15,22.60
2010,07,07,12,16,22.70
2010,07,07,12,17,22.80
2010,07,07,12,18,22.90
2010,07,07,12,19,22.90
2010,07,07,12,20,23.00
2010,07,07,12,21,23.10
2010,07,07,12,22,23.20
2010,07,07,12,23,23.30
2010,07,07,12,24,23.30
2010,07,07,12,25,23.30
2010,07,07,12,26,23.20
2010,07,07,12,27,23.20
2010,07,07,12,28,23.20
2010,07,07,12,29,23.10
2010,07,07,12,30,23.10
2010,07,07,12,31,23.10
2010,07,07,12,32,23.20
2010,07,07,12,33,23.20
2010,07,07,12,34,23.10
2010,07,07,12,35,23.10
2010,07,07,12,36,23.10
2010,07,07,12,37,23.10
2010,07,07,12,38,23.10
2010,07,07,12,39,23.10
2010,07,07,12,40,23.20
2010,07,07,12,41,23.30
2010,07,07,12,42,23.30
2010,07,07,12,43,23.40
2010,07,07,12,44,23.60
2010,07,07,12,45,23.70
2010,07,07,12,46,23.70
2010,07,07,12,47,23.70
2010,07,07,12,48,23.70
2010,07,07,12,49,23.70
2010,07,07,12,50,23.70
2010,07,07,12,51,23.70
2010,07,07,12,52,23.70
2010,07,07,12,53,23.70
2010,07,07,12,54,23.60
2010,07,07,12,55,23.60
2010,07,07,12,56,23.70
2010,07,07,12,57,23.70
2010,07,07,12,58,23.70
2010,07,07,12,59,23.70
2010,07,07,13,00,23.70
2010,07,07,13,01,23.70
2010,07,07,13,02,23.70
2010,07,07,13,03,23.80
2010,07,07,13,04,23.80
2010,07,07,13,05,23.90
2010,07,07,13,06,24.10
2010,07,07,13,07,24.10
2010,07,07,13,08,24.20
2010,07,07,13,09,24.20
2010,07,07,13,10,24.30
2010,07,07,13,11,24.30
2010,07,07,13,12,24.20
2010,07,07,13,13,24.20
2010,07,07,13,14,24.20
2010,07,07,13,15,24.30
2010,07,07,13,16,24.40
2010,07,07,13,17,24.50
2010,07,07,13,18,24.70
2010,07,07,13,19,24.80
2010,07,07,13,20,24.90
2010,07,07,13,21,24.90
2010,07,07,13,22,24.80
2010,07,07,13,23,24.70
2010,07,07,13,24,24.70
2010,07,07,13,25,24.60
2010,07,07,13,26,24.60
2010,07,07,13,27,24.50
2010,07,07,13,28,24.50
2010,07,07,13,29,24.30
2010,07,07,13,30,24.20
2010,07,07,13,31,24.20
2010,07,07,13,32,24.20
2010,07,07,13,33,24.30
2010,07,07,13,34,24.30
2010,07,07,13,35,24.30
2010,07,07,13,36,24.30
2010,07,07,13,37,24.40
2010,07,07,13,38,24.30
2010,07,07,13,39,24.40
2010,07,07,13,40,24.50
2010,07,07,13,41,24.70
2010,07,07,13,42,24.70
2010,07,07,13,43,24.80
2010,07,07,13,44,24.80
2010,07,07,13,45,24.90
2010,07,07,13,46,25.00
2010,07,07,13,47,25.00
2010,07,07,13,48,25.00
2010,07,07,13,49,24.90
2010,07,07,13,50,24.80
2010,07,07,13,51,24.70
2010,07,07,13,52,24.60
2010,07,07,13,53,24.60
2010,07,07,13,54,24.60
2010,07,07,13,55,24.50
2010,07,07,13,56,24.40
2010,07,07,13,57,24.30
2010,07,07,13,58,24.20
2010,07,07,13,59,24.20
2010,07,07,14,00,24.30
2010,07,07,14,01,24.30
2010,07,07,14,02,24.40
2010,07,07,14,03,24.40
2010,07,07,14,04,24.50
2010,07,07,14,05,24.50
2010,07,07,14,06,24.60
2010,07,07,14,07,24.80
2010,07,07,14,08,24.90
2010,07,07,14,09,25.00
2010,07,07,14,10,25.20
2010,07,07,14,11,25.30
2010,07,07,14,12,25.30
2010,07,07,14,13,25.40
2010,07,07,14,14,25.50
2010,07,07,14,15,25.50
2010,07,07,14,16,25.60
2010,07,07,14,17,25.70
2010,07,07,14,18,25.80
2010,07,07,14,19,25.90
2010,07,07,14,20,25.90
2010,07,07,14,21,26.00
2010,07,07,14,22,26.10
2010,07,07,14,23,26.10
2010,07,07,14,24,26.20
2010,07,07,14,25,26.20
2010,07,07,14,26,26.20
2010,07,07,14,27,26.10
2010,07,07,14,28,26.10
2010,07,07,14,29,26.10
2010,07,07,14,30,26.10
2010,07,07,14,31,26.10
2010,07,07,14,32,26.10
2010,07,07,14,33,26.20
2010,07,07,14,34,26.30
2010,07,07,14,35,26.40
2010,07,07,14,36,26.50
2010,07,07,14,37,26.60
2010,07,07,14,38,26.40
2010,07,07,14,39,26.30
2010,07,07,14,40,26.20
2010,07,07,14,41,26.00
2010,07,07,14,42,25.90
2010,07,07,14,43,25.80
2010,07,07,14,44,25.90
2010,07,07,14,45,25.90
2010,07,07,14,46,25.90
2010,07,07,14,47,25.90
2010,07,07,14,48,25.90
2010,07,07,14,49,25.90
2010,07,07,14,50,26.00
2010,07,07,14,51,26.10
2010,07,07,14,52,26.20
2010,07,07,14,53,26.30
2010,07,07,14,54,26.30
2010,07,07,14,55,26.30
2010,07,07,14,56,26.30
2010,07,07,14,57,26.30
2010,07,07,14,58,26.30
2010,07,07,14,59,26.30
2010,07,07,15,00,26.30
2010,07,07,15,01,26.40
2010,07,07,15,02,26.50
2010,07,07,15,03,26.60
2010,07,07,15,04,26.60
2010,07,07,15,05,26.60
2010,07,07,15,06,26.60
2010,07,07,15,07,26.70
2010,07,07,15,08,26.70
2010,07,07,15,09,26.70
2010,07,07,15,10,26.70
2010,07,07,15,11,26.70
2010,07,07,15,12,26.70
2010,07,07,15,13,26.70
2010,07,07,15,14,26.70
2010,07,07,15,15,26.60
2010,07,07,15,16,26.60
2010,07,07,15,17,26.60
2010,07,07,15,18,26.60
2010,07,07,15,19,26.60
2010,07,07,15,20,26.60
2010,07,07,15,21,26.60
2010,07,07,15,22,26.60
2010,07,07,15,23,26.60
2010,07,07,15,24,26.60
2010,07,07,15,25,26.60
2010,07,07,15,26,26.60
2010,07,07,15,27,26.60
2010,07,07,15,28,26.70
2010,07,07,15,29,26.80
2010,07,07,15,30,26.90
2010,07,07,15,31,26.90
2010,07,07,15,32,27.10
2010,07,07,15,33,27.10
2010,07,07,15,34,27.00
2010,07,07,15,35,26.90
2010,07,07,15,36,26.90
2010,07,07,15,37,26.90
2010,07,07,15,38,26.90
2010,07,07,15,39,26.90
2010,07,07,15,40,27.10
2010,07,07,15,41,27.20
2010,07,07,15,42,27.30
2010,07,07,15,43,27.30
2010,07,07,15,44,27.30
2010,07,07,15,45,27.30
2010,07,07,15,46,27.40
2010,07,07,15,47,27.50
2010,07,07,15,48,27.60
2010,07,07,15,49,27.70
2010,07,07,15,50,27.70
2010,07,07,15,51,27.80
2010,07,07,15,52,27.90
2010,07,07,15,53,27.90
2010,07,07,15,54,28.00
2010,07,07,15,55,28.10
2010,07,07,15,56,28.20
2010,07,07,15,57,28.30
2010,07,07,15,58,28.40
2010,07,07,15,59,28.40
2010,07,07,16,00,28.60
2010,07,07,16,01,28.60
2010,07,07,16,02,28.60
2010,07,07,16,03,28.40
2010,07,07,16,04,28.40
2010,07,07,16,05,28.30
2010,07,07,16,06,28.30
2010,07,07,16,07,28.40
2010,07,07,16,08,28.40
2010,07,07,16,09,28.40
2010,07,07,16,10,28.50
2010,07,07,16,11,28.60
2010,07,07,16,12,28.60
2010,07,07,16,13,28.70
2010,07,07,16,14,28.80
2010,07,07,16,15,28.80
2010,07,07,16,16,28.90
2010,07,07,16,17,28.90
2010,07,07,16,18,28.90
2010,07,07,16,19,28.90
2010,07,07,16,20,28.90
2010,07,07,16,21,28.90
2010,07,07,16,22,28.90
2010,07,07,16,23,28.90
2010,07,07,16,24,28.90
2010,07,07,16,25,28.90
2010,07,07,16,26,28.90
2010,07,07,16,27,28.90
2010,07,07,16,28,28.80
2010,07,07,16,29,28.80
2010,07,07,16,30,28.70
2010,07,07,16,31,28.70
2010,07,07,16,32,28.70
2010,07,07,16,33,28.70
2010,07,07,16,34,28.60
2010,07,07,16,35,28.60
2010,07,07,16,36,28.60
2010,07,07,16,37,28.50
2010,07,07,16,38,28.40
2010,07,07,16,39,28.30
2010,07,07,16,40,28.30
2010,07,07,16,41,28.30
2010,07,07,16,42,28.30
2010,07,07,16,43,28.30
2010,07,07,16,44,28.30
2010,07,07,16,45,28.30
2010,07,07,16,46,28.30
2010,07,07,16,47,28.30
2010,07,07,16,48,28.30
2010,07,07,16,49,28.40
2010,07,07,16,50,28.50
2010,07,07,16,51,28.60
2010,07,07,16,52,28.70
2010,07,07,16,53,28.70
2010,07,07,16,54,28.80
2010,07,07,16,55,28.90
2010,07,07,16,56,28.90
2010,07,07,16,57,28.90
2010,07,07,16,58,28.90
2010,07,07,16,59,28.90
2010,07,07,17,00,28.90
2010,07,07,17,01,28.90
2010,07,07,17,02,28.90
2010,07,07,17,03,28.80
2010,07,07,17,04,28.80
2010,07,07,17,05,28.80
2010,07,07,17,06,28.70
2010,07,07,17,07,28.70
2010,07,07,17,08,28.70
2010,07,07,17,09,28.70
2010,07,07,17,10,28.70
2010,07,07,17,11,28.70
2010,07,07,17,12,28.70
2010,07,07,17,13,28.80
2010,07,07,17,14,28.80
2010,07,07,17,15,28.70
2010,07,07,17,16,28.70
2010,07,07,17,17,28.70
2010,07,07,17,18,28.70
2010,07,07,17,19,28.80